Time,TemperatureF,DewpointF,PressureIn,WindDirection,WindDirectionDegrees,WindSpeedMPH,WindSpeedGustMPH,Humidity,HourlyPrecipIn,Conditions,Clouds,dailyrainin,SoftwareType,DateUTC
2013-09-28 11:37:00,66.7,66.4,45.43,East,90,5.8,-999.0,99,-99.99,,,0.00,Acu-Link.com,2013-09-28 15:37:00,
2013-09-28 11:52:00,68.4,68.1,45.42,ESE,112,3.8,-999.0,99,-99.99,,,0.00,Acu-Link.com,2013-09-28 15:52:00,
2013-09-28 12:07:00,68.9,68.6,45.43,East,90,3.8,-999.0,99,-99.99,,,0.00,Acu-Link.com,2013-09-28 16:07:00,
2013-09-28 12:22:00,67.6,67.3,45.43,NE,45,4.7,-999.0,99,-99.99,,,0.00,Acu-Link.com,2013-09-28 16:22:00,
2013-09-28 12:37:00,68.4,68.1,45.42,SW,225,3.8,-999.0,99,-99.99,,,0.00,Acu-Link.com,2013-09-28 16:37:00,
2013-09-28 12:53:00,68.7,68.4,45.42,East,90,4.3,-999.0,99,-99.99,,,0.00,Acu-Link.com,2013-09-28 16:53:00,
2013-09-28 13:08:00,70.0,69.7,45.42,ENE,67,2.2,-999.0,99,-99.99,,,0.00,Acu-Link.com,2013-09-28 17:08:00,
2013-09-28 13:23:00,70.2,69.9,45.41,ENE,67,4.3,-999.0,99,-99.99,,,0.00,Acu-Link.com,2013-09-28 17:23:00,
2013-09-28 13:38:00,70.9,70.6,45.40,East,90,3.8,-999.0,99,-99.99,,,0.00,Acu-Link.com,2013-09-28 17:38:00,
2013-09-28 13:53:00,72.0,71.7,45.40,ENE,67,4.3,-999.0,99,-99.99,,,0.00,Acu-Link.com,2013-09-28 17:53:00,
2013-09-28 14:09:00,72.1,71.8,45.40,ENE,67,5.1,-999.0,99,-99.99,,,0.00,Acu-Link.com,2013-09-28 18:09:00,
2013-09-28 14:24:00,72.1,71.8,45.39,NE,45,1.6,-999.0,99,-99.99,,,0.00,Acu-Link.com,2013-09-28 18:24:00,
2013-09-28 14:39:00,72.1,71.8,45.39,ESE,112,3.8,-999.0,99,-99.99,,,0.00,Acu-Link.com,2013-09-28 18:39:00,
2013-09-28 14:54:00,70.9,70.6,45.39,ESE,112,0.0,-999.0,99,-99.99,,,0.00,Acu-Link.com,2013-09-28 18:54:00,
2013-09-28 15:10:00,72.1,71.8,45.39,SSW,202,0.0,-999.0,99,-99.99,,,0.00,Acu-Link.com,2013-09-28 19:10:00,
2013-09-28 15:25:00,71.1,70.8,45.38,NE,45,6.3,-999.0,99,-99.99,,,0.00,Acu-Link.com,2013-09-28 19:25:00,
2013-09-28 15:40:00,67.8,67.5,45.38,ESE,112,0.0,-999.0,99,-99.99,,,0.00,Acu-Link.com,2013-09-28 19:40:00,
2013-09-28 15:55:00,69.6,69.3,45.38,WSW,247,0.0,-999.0,99,-99.99,,,0.00,Acu-Link.com,2013-09-28 19:55:00,
2013-09-28 16:10:00,71.6,71.3,45.37,West,270,1.1,-999.0,99,-99.99,,,0.00,Acu-Link.com,2013-09-28 20:10:00,
2013-09-28 16:26:00,70.9,70.6,45.37,East,90,2.2,-999.0,99,-99.99,,,0.00,Acu-Link.com,2013-09-28 20:26:00,
2013-09-28 16:41:00,70.3,70.0,45.37,NE,45,2.2,-999.0,99,-99.99,,,0.00,Acu-Link.com,2013-09-28 20:41:00,
2013-09-28 16:56:00,68.9,68.6,45.37,ESE,112,0.0,-999.0,99,-99.99,,,0.00,Acu-Link.com,2013-09-28 20:56:00,
2013-09-28 17:11:00,69.1,68.8,45.37,ESE,112,1.6,-999.0,99,-99.99,,,0.00,Acu-Link.com,2013-09-28 21:11:00,
2013-09-28 17:26:00,69.3,69.0,45.37,ENE,67,0.0,-999.0,99,-99.99,,,0.00,Acu-Link.com,2013-09-28 21:26:00,
2013-09-28 17:42:00,70.0,69.7,45.37,East,90,1.6,-999.0,99,-99.99,,,0.00,Acu-Link.com,2013-09-28 21:42:00,
2013-09-28 17:57:00,68.7,47.1,45.37,WSW,247,1.1,-999.0,46,-99.99,,,0.00,Acu-Link.com,2013-09-28 21:57:00,
2013-09-28 18:12:00,65.1,64.8,45.37,West,270,0.0,-999.0,99,-99.99,,,0.00,Acu-Link.com,2013-09-28 22:12:00,
2013-09-28 18:27:00,62.1,61.8,45.37,West,270,0.0,-999.0,99,-99.99,,,0.00,Acu-Link.com,2013-09-28 22:27:00,
2013-09-28 18:42:00,59.9,59.6,45.37,West,270,0.0,-999.0,99,-99.99,,,0.00,Acu-Link.com,2013-09-28 22:42:00,
2013-09-28 18:58:00,58.5,58.2,45.37,West,270,0.0,-999.0,99,-99.99,,,0.00,Acu-Link.com,2013-09-28 22:58:00,
2013-09-28 19:13:00,57.2,56.9,45.36,West,270,0.0,-999.0,99,-99.99,,,0.00,Acu-Link.com,2013-09-28 23:13:00,
2013-09-28 19:28:00,56.3,56.0,45.36,West,270,0.0,-999.0,99,-99.99,,,0.00,Acu-Link.com,2013-09-28 23:28:00,
2013-09-28 19:43:00,55.4,55.1,45.36,West,270,0.0,-999.0,99,-99.99,,,0.00,Acu-Link.com,2013-09-28 23:43:00,
2013-09-28 19:58:00,54.5,54.2,45.36,West,270,0.0,-999.0,99,-99.99,,,0.00,Acu-Link.com,2013-09-28 23:58:00,
2013-09-28 20:14:00,54.0,53.7,45.35,West,270,0.0,-999.0,99,-99.99,,,0.00,Acu-Link.com,2013-09-29 00:14:00,
2013-09-28 20:29:00,53.4,53.1,45.36,West,270,0.0,-999.0,99,-99.99,,,0.00,Acu-Link.com,2013-09-29 00:29:00,
2013-09-28 20:44:00,52.7,52.4,45.36,West,270,0.0,-999.0,99,-99.99,,,0.00,Acu-Link.com,2013-09-29 00:44:00,
2013-09-28 20:59:00,52.0,51.7,45.37,West,270,0.0,-999.0,99,-99.99,,,0.00,Acu-Link.com,2013-09-29 00:59:00,
2013-09-28 21:15:00,51.3,51.0,45.36,SSW,202,0.0,-999.0,99,-99.99,,,0.00,Acu-Link.com,2013-09-29 01:15:00,
2013-09-28 21:30:00,50.7,50.4,45.37,West,270,0.0,-999.0,99,-99.99,,,0.00,Acu-Link.com,2013-09-29 01:30:00,
2013-09-28 21:45:00,50.5,50.3,45.37,West,270,0.0,-999.0,99,-99.99,,,0.00,Acu-Link.com,2013-09-29 01:45:00,
2013-09-28 22:00:00,50.0,49.7,45.37,WSW,247,0.0,-999.0,99,-99.99,,,0.00,Acu-Link.com,2013-09-29 02:00:00,
2013-09-28 22:15:00,49.5,49.2,45.36,South,180,0.0,-999.0,99,-99.99,,,0.00,Acu-Link.com,2013-09-29 02:15:00,
2013-09-28 22:31:00,49.1,48.8,45.37,ESE,112,0.0,-999.0,99,-99.99,,,0.00,Acu-Link.com,2013-09-29 02:31:00,
2013-09-28 22:46:00,48.7,48.5,45.37,SW,225,0.0,-999.0,99,-99.99,,,0.00,Acu-Link.com,2013-09-29 02:46:00,
2013-09-28 23:01:00,48.6,48.3,45.37,WNW,292,0.0,-999.0,99,-99.99,,,0.00,Acu-Link.com,2013-09-29 03:01:00,
2013-09-28 23:16:00,48.2,47.9,45.37,WNW,292,1.1,-999.0,99,-99.99,,,0.00,Acu-Link.com,2013-09-29 03:16:00,
2013-09-28 23:31:00,48.0,-29.2,45.36,WSW,247,0.0,-999.0,3,-99.99,,,0.00,Acu-Link.com,2013-09-29 03:31:00,
2013-09-28 23:47:00,47.7,-36.7,45.37,West,270,2.2,-999.0,2,-99.99,,,0.00,Acu-Link.com,2013-09-29 03:47:00,